Radioactive Concentration measured by Seawater Radiation Monitor near Fukushima Daiichi Nuclear Power Station
Date,Time,Cs137(Bq/L),Cs134(Bq/L),Total β(Bq/L)
2017/09/22,00:00,0.80,0.044,ND
2017/09/22,00:10,0.79,0.041,ND
2017/09/22,00:20,0.77,0.047,ND
2017/09/22,00:30,0.78,0.043,ND
2017/09/22,00:40,0.77,0.042,ND
2017/09/22,00:50,0.78,0.045,ND
2017/09/22,01:00,0.77,0.046,ND
2017/09/22,01:10,0.76,0.062,ND
2017/09/22,01:20,0.78,0.053,ND
2017/09/22,01:30,0.91,0.030,ND
2017/09/22,01:40,0.89,0.030,ND
2017/09/22,01:50,0.88,0.025,ND
2017/09/22,02:00,0.89,0.027,ND
2017/09/22,02:10,0.93,ND,ND
2017/09/22,02:20,0.86,0.040,ND
2017/09/22,02:30,0.92,ND,ND
2017/09/22,02:40,0.93,ND,ND
2017/09/22,02:50,0.96,ND,ND
2017/09/22,03:00,0.78,0.032,ND
2017/09/22,03:10,0.81,ND,ND
2017/09/22,03:20,0.78,0.029,ND
2017/09/22,03:30,0.78,0.041,ND
2017/09/22,03:40,0.78,0.045,ND
2017/09/22,03:50,0.78,0.043,ND
2017/09/22,04:00,0.78,0.053,ND
2017/09/22,04:10,0.78,0.058,ND
2017/09/22,04:20,0.78,0.061,ND
2017/09/22,04:30,0.75,0.056,ND
2017/09/22,04:40,0.72,0.061,ND
2017/09/22,04:50,0.71,0.063,ND
2017/09/22,05:00,0.72,0.061,ND
2017/09/22,05:10,0.76,0.054,ND
2017/09/22,05:20,0.77,0.053,ND
2017/09/22,05:30,0.89,0.052,ND
2017/09/22,05:40,0.81,0.045,ND
2017/09/22,05:50,0.81,0.038,ND
2017/09/22,06:00,0.81,0.036,ND
2017/09/22,06:10,0.75,0.053,ND
2017/09/22,06:20,0.73,0.064,ND
2017/09/22,06:30,0.76,0.057,ND
2017/09/22,06:40,0.76,0.057,ND
2017/09/22,06:50,0.77,0.060,ND
2017/09/22,07:00,0.87,0.031,ND
2017/09/22,07:10,0.78,0.065,ND
2017/09/22,07:20,0.81,0.055,ND
2017/09/22,07:30,0.82,0.060,ND
2017/09/22,07:40,0.84,0.062,ND
2017/09/22,07:50,0.86,0.058,ND
2017/09/22,08:00,0.88,0.070,ND
2017/09/22,08:10,0.90,0.073,ND
2017/09/22,08:20,0.94,0.067,ND
2017/09/22,08:30,0.94,0.070,ND
2017/09/22,08:40,0.95,0.078,ND
2017/09/22,08:50,0.96,0.081,ND
2017/09/22,09:00,0.98,0.072,ND
2017/09/22,09:10,0.99,0.073,ND
2017/09/22,09:20,0.99,0.072,ND
2017/09/22,09:30,0.97,0.081,ND
2017/09/22,09:40,0.96,0.077,ND
2017/09/22,09:50,0.95,0.068,ND
2017/09/22,10:00,0.94,0.059,ND
2017/09/22,10:10,0.90,0.062,ND
2017/09/22,10:20,0.87,0.048,ND
2017/09/22,10:30,0.88,0.037,ND
2017/09/22,10:40,0.87,0.032,ND
2017/09/22,10:50,0.84,0.049,ND
2017/09/22,11:00,0.84,0.045,ND
2017/09/22,11:10,0.83,0.038,ND
2017/09/22,11:20,0.82,0.039,ND
2017/09/22,11:30,0.82,0.034,ND
2017/09/22,11:40,0.81,0.040,ND
2017/09/22,11:50,0.78,0.038,ND
2017/09/22,12:00,0.76,0.044,ND
2017/09/22,12:10,0.74,0.047,ND
2017/09/22,12:20,0.75,0.052,ND
2017/09/22,12:30,0.74,0.057,ND
2017/09/22,12:40,0.73,0.058,ND
2017/09/22,12:50,0.77,0.048,ND
2017/09/22,13:00,0.79,0.043,ND
2017/09/22,13:10,0.78,0.051,ND
2017/09/22,13:20,0.79,0.045,ND
2017/09/22,13:30,0.91,0.025,ND
2017/09/22,13:40,0.93,ND,ND
2017/09/22,13:50,0.77,0.048,ND
2017/09/22,14:00,0.88,0.026,ND
2017/09/22,14:10,0.88,0.025,ND
2017/09/22,14:20,0.91,ND,ND
2017/09/22,14:30,0.92,ND,ND
2017/09/22,14:40,0.94,ND,ND
2017/09/22,14:50,0.93,ND,ND
2017/09/22,15:00,0.79,0.041,ND
2017/09/22,15:10,0.80,0.035,ND
2017/09/22,15:20,0.80,0.040,ND
2017/09/22,15:30,0.79,0.040,ND
2017/09/22,15:40,0.78,0.036,ND
2017/09/22,15:50,0.86,ND,ND
2017/09/22,16:00,0.77,0.043,ND
2017/09/22,16:10,0.76,0.054,ND
2017/09/22,16:20,0.73,0.065,ND
2017/09/22,16:30,0.75,0.065,ND
2017/09/22,16:40,0.78,0.063,ND
2017/09/22,16:50,0.79,0.062,ND
2017/09/22,17:00,0.76,0.064,ND
2017/09/22,17:10,0.75,0.058,ND
2017/09/22,17:20,0.76,0.036,ND
2017/09/22,17:30,0.76,0.033,ND
2017/09/22,17:40,0.75,0.032,ND
2017/09/22,17:50,0.75,0.035,ND
2017/09/22,18:00,0.76,0.038,ND
2017/09/22,18:10,0.79,0.031,ND
2017/09/22,18:20,0.80,0.042,ND
2017/09/22,18:30,0.79,0.045,ND
2017/09/22,18:40,0.97,ND,ND
2017/09/22,18:50,0.96,ND,ND
2017/09/22,19:00,0.98,ND,ND
2017/09/22,19:10,0.96,ND,ND
2017/09/22,19:20,0.96,ND,ND
2017/09/22,19:30,0.98,ND,ND
2017/09/22,19:40,0.91,0.030,ND
2017/09/22,19:50,0.91,0.030,ND
2017/09/22,20:00,0.89,0.034,ND
2017/09/22,20:10,0.78,0.050,ND
2017/09/22,20:20,0.89,0.042,ND
2017/09/22,20:30,0.91,0.039,ND
2017/09/22,20:40,0.79,0.066,ND
2017/09/22,20:50,0.79,0.064,ND
2017/09/22,21:00,0.81,0.059,ND
2017/09/22,21:10,0.81,0.065,ND
2017/09/22,21:20,0.82,0.061,ND
2017/09/22,21:30,0.83,0.064,ND
2017/09/22,21:40,0.82,0.067,ND
2017/09/22,21:50,0.83,0.064,ND
2017/09/22,22:00,0.83,0.059,ND
2017/09/22,22:10,0.95,0.031,ND
2017/09/22,22:20,0.82,0.055,ND
2017/09/22,22:30,0.96,0.025,ND
2017/09/22,22:40,1.0,ND,ND
2017/09/22,22:50,1.0,ND,ND
2017/09/22,23:00,1.1,0.025,ND
2017/09/22,23:10,1.1,ND,ND
2017/09/22,23:20,1.1,0.029,ND
2017/09/22,23:30,1.1,0.033,ND
2017/09/22,23:40,1.1,0.034,ND
2017/09/22,23:50,1.1,0.037,ND
